GEFSSE_prec_meanprecacc_162.txt.gz
Total_Precipitation_Accumulation
0.05 0.12 0.31 0.32 0.30 0.28 0.25 0.24 0.23 0.24 0.24 0.25 0.25 0.25 0.27 0.25 0.21 0.17 0.17 0.20 0.23 0.29 0.35 0.35 0.40 0.44 0.42 0.41 0.37 0.21 0.12 0.09 0.08 0.07 0.08 0.11 0.14 0.14 0.12 0.12 0.13 0.14 0.16
0.06 0.12 0.28 0.33 0.35 0.32 0.28 0.25 0.22 0.20 0.24 0.26 0.28 0.31 0.32 0.29 0.23 0.21 0.21 0.23 0.28 0.35 0.36 0.34 0.30 0.27 0.26 0.26 0.19 0.10 0.05 0.03 0.02 0.01 0.02 0.04 0.07 0.10 0.11 0.11 0.11 0.14 0.17
0.07 0.14 0.27 0.33 0.38 0.36 0.32 0.26 0.22 0.19 0.22 0.26 0.31 0.35 0.34 0.30 0.28 0.27 0.27 0.27 0.32 0.35 0.32 0.25 0.21 0.16 0.12 0.10 0.08 0.05 0.02 0.01 0.01 0.01 0.02 0.04 0.06 0.09 0.12 0.11 0.12 0.15 0.15
0.07 0.15 0.26 0.35 0.41 0.39 0.30 0.25 0.24 0.23 0.24 0.27 0.31 0.35 0.32 0.28 0.28 0.26 0.27 0.29 0.28 0.25 0.21 0.15 0.12 0.10 0.07 0.05 0.04 0.03 0.02 0.01 0.01 0.01 0.02 0.03 0.04 0.09 0.14 0.14 0.14 0.14 0.13
0.11 0.17 0.29 0.37 0.44 0.44 0.39 0.33 0.29 0.27 0.29 0.29 0.33 0.35 0.33 0.30 0.27 0.26 0.27 0.26 0.22 0.15 0.11 0.11 0.07 0.07 0.05 0.03 0.03 0.03 0.02 0.02 0.01 0.01 0.02 0.03 0.05 0.12 0.14 0.15 0.16 0.15 0.16
0.20 0.28 0.35 0.38 0.45 0.48 0.47 0.43 0.40 0.34 0.32 0.34 0.36 0.37 0.38 0.34 0.31 0.32 0.29 0.19 0.13 0.11 0.08 0.07 0.06 0.05 0.03 0.03 0.03 0.03 0.03 0.02 0.01 0.01 0.02 0.04 0.08 0.16 0.16 0.17 0.19 0.20 0.22
0.31 0.39 0.45 0.45 0.49 0.49 0.49 0.49 0.48 0.45 0.43 0.42 0.41 0.41 0.45 0.42 0.36 0.33 0.29 0.16 0.10 0.10 0.10 0.09 0.07 0.05 0.04 0.03 0.03 0.04 0.04 0.02 0.01 0.01 0.02 0.04 0.09 0.17 0.17 0.16 0.18 0.20 0.22
0.43 0.52 0.56 0.58 0.61 0.56 0.54 0.52 0.52 0.55 0.56 0.54 0.51 0.50 0.51 0.50 0.44 0.34 0.27 0.16 0.11 0.10 0.10 0.11 0.09 0.06 0.05 0.04 0.03 0.04 0.03 0.02 0.01 0.02 0.03 0.04 0.06 0.13 0.14 0.12 0.12 0.13 0.15
0.66 0.73 0.78 0.74 0.68 0.64 0.61 0.58 0.55 0.58 0.61 0.61 0.57 0.54 0.53 0.51 0.46 0.36 0.24 0.17 0.14 0.13 0.11 0.10 0.10 0.08 0.07 0.05 0.04 0.04 0.02 0.01 0.01 0.02 0.02 0.03 0.07 0.13 0.13 0.12 0.11 0.11 0.12
0.99 0.97 0.98 0.95 0.89 0.79 0.69 0.59 0.57 0.57 0.60 0.62 0.55 0.46 0.41 0.41 0.42 0.36 0.22 0.18 0.15 0.15 0.14 0.11 0.10 0.09 0.07 0.05 0.04 0.03 0.02 0.01 0.01 0.02 0.03 0.04 0.08 0.13 0.14 0.13 0.13 0.14 0.14
1.33 1.22 1.13 1.08 1.06 0.96 0.87 0.70 0.61 0.61 0.64 0.60 0.50 0.41 0.39 0.43 0.40 0.34 0.19 0.14 0.14 0.14 0.14 0.13 0.12 0.10 0.06 0.04 0.03 0.03 0.02 0.02 0.01 0.02 0.03 0.04 0.07 0.11 0.13 0.13 0.13 0.15 0.16
1.44 1.33 1.25 1.16 1.15 1.10 0.96 0.85 0.78 0.68 0.66 0.62 0.49 0.40 0.40 0.41 0.40 0.31 0.22 0.13 0.14 0.13 0.13 0.14 0.14 0.11 0.07 0.04 0.03 0.03 0.03 0.03 0.03 0.03 0.03 0.03 0.06 0.10 0.12 0.13 0.14 0.14 0.14
1.66 1.55 1.41 1.28 1.26 1.28 1.16 0.97 0.88 0.77 0.70 0.70 0.56 0.49 0.44 0.46 0.45 0.41 0.33 0.23 0.20 0.15 0.14 0.13 0.13 0.08 0.06 0.05 0.05 0.04 0.03 0.04 0.04 0.04 0.03 0.03 0.05 0.08 0.12 0.14 0.15 0.15 0.16
1.78 1.67 1.59 1.47 1.34 1.33 1.25 1.13 0.98 0.85 0.73 0.71 0.68 0.58 0.53 0.47 0.42 0.38 0.35 0.26 0.24 0.20 0.18 0.15 0.12 0.09 0.08 0.08 0.07 0.06 0.05 0.05 0.05 0.05 0.04 0.03 0.04 0.06 0.10 0.13 0.15 0.17 0.18
1.66 1.67 1.58 1.52 1.38 1.30 1.25 1.18 1.02 0.96 0.83 0.72 0.75 0.75 0.61 0.49 0.42 0.39 0.40 0.36 0.30 0.25 0.22 0.18 0.14 0.11 0.10 0.09 0.09 0.07 0.06 0.05 0.05 0.05 0.04 0.03 0.03 0.03 0.06 0.09 0.12 0.16 0.22
1.56 1.63 1.65 1.59 1.44 1.35 1.23 1.13 1.03 0.97 0.93 0.88 0.77 0.74 0.72 0.59 0.50 0.46 0.41 0.38 0.33 0.28 0.25 0.21 0.17 0.16 0.13 0.12 0.11 0.09 0.08 0.07 0.06 0.06 0.05 0.05 0.04 0.03 0.03 0.06 0.12 0.21 0.30
1.52 1.64 1.66 1.67 1.61 1.40 1.26 1.16 1.09 1.11 1.04 0.99 0.89 0.78 0.76 0.69 0.62 0.58 0.49 0.39 0.33 0.32 0.30 0.28 0.26 0.23 0.18 0.13 0.10 0.09 0.08 0.08 0.07 0.06 0.06 0.06 0.05 0.05 0.04 0.05 0.10 0.18 0.29
1.55 1.67 1.69 1.65 1.62 1.49 1.32 1.23 1.12 1.08 1.14 1.05 1.01 0.94 0.85 0.83 0.79 0.72 0.61 0.48 0.46 0.48 0.44 0.38 0.33 0.27 0.21 0.18 0.14 0.12 0.11 0.10 0.09 0.08 0.07 0.06 0.05 0.05 0.05 0.05 0.08 0.13 0.21
1.59 1.69 1.75 1.74 1.68 1.69 1.61 1.44 1.33 1.21 1.12 1.17 1.13 1.04 0.92 0.87 0.87 0.82 0.70 0.64 0.65 0.58 0.50 0.44 0.37 0.33 0.28 0.25 0.23 0.20 0.18 0.15 0.13 0.11 0.10 0.09 0.08 0.07 0.08 0.08 0.09 0.11 0.13
1.71 1.82 1.85 1.83 1.77 1.90 1.96 1.78 1.54 1.39 1.19 1.12 1.16 1.10 1.02 1.00 0.95 0.89 0.80 0.77 0.81 0.74 0.63 0.56 0.49 0.44 0.39 0.38 0.35 0.27 0.22 0.20 0.17 0.14 0.12 0.12 0.11 0.12 0.12 0.12 0.13 0.12 0.13
1.76 1.85 1.87 1.85 1.84 1.85 1.85 1.75 1.55 1.34 1.27 1.17 1.13 1.17 1.16 1.16 1.20 1.09 0.91 0.88 0.91 0.82 0.73 0.71 0.71 0.67 0.58 0.55 0.50 0.35 0.25 0.21 0.18 0.14 0.13 0.12 0.12 0.13 0.14 0.16 0.16 0.15 0.14
1.59 1.84 1.91 1.91 1.95 1.81 1.65 1.71 1.70 1.63 1.49 1.37 1.31 1.27 1.23 1.22 1.23 1.22 1.16 1.09 1.08 1.05 1.00 0.93 0.91 0.85 0.77 0.76 0.68 0.60 0.40 0.26 0.19 0.16 0.16 0.16 0.16 0.17 0.16 0.17 0.18 0.18 0.17
1.34 1.65 1.83 1.93 1.97 1.97 1.91 2.02 1.96 1.86 1.64 1.39 1.23 1.23 1.25 1.28 1.30 1.26 1.26 1.25 1.24 1.21 1.14 1.10 1.08 1.05 0.97 0.92 0.87 0.88 0.64 0.38 0.26 0.21 0.20 0.21 0.21 0.20 0.21 0.22 0.21 0.21 0.21
1.12 1.35 1.54 1.82 2.01 2.08 2.14 2.09 1.97 1.76 1.53 1.31 1.28 1.39 1.42 1.39 1.35 1.33 1.31 1.31 1.31 1.24 1.17 1.23 1.26 1.16 1.15 1.09 1.04 0.95 0.80 0.61 0.52 0.37 0.27 0.27 0.28 0.27 0.27 0.26 0.24 0.24 0.24
1.01 1.20 1.33 1.55 1.86 1.96 1.91 1.89 1.96 1.83 1.62 1.51 1.48 1.46 1.44 1.37 1.32 1.28 1.28 1.30 1.29 1.27 1.19 1.21 1.27 1.29 1.26 1.21 1.15 1.10 1.08 0.93 0.77 0.69 0.51 0.38 0.37 0.36 0.37 0.37 0.35 0.32 0.31
0.85 1.05 1.23 1.32 1.53 1.69 1.67 1.72 1.79 1.71 1.64 1.54 1.41 1.37 1.39 1.35 1.26 1.21 1.21 1.23 1.27 1.28 1.24 1.22 1.28 1.34 1.36 1.28 1.18 1.08 1.05 0.99 0.88 0.85 0.75 0.56 0.49 0.41 0.40 0.40 0.40 0.40 0.41

GEFSSE_prec_meanprecacc_168.txt.gz
Total_Precipitation_Accumulation
0.06 0.12 0.31 0.33 0.31 0.30 0.27 0.26 0.25 0.26 0.25 0.27 0.27 0.27 0.28 0.27 0.22 0.18 0.19 0.22 0.25 0.30 0.36 0.37 0.41 0.45 0.43 0.41 0.37 0.21 0.12 0.10 0.08 0.07 0.08 0.11 0.15 0.14 0.12 0.13 0.14 0.14 0.17
0.07 0.12 0.28 0.34 0.36 0.33 0.31 0.27 0.24 0.22 0.25 0.28 0.30 0.33 0.34 0.31 0.25 0.22 0.24 0.26 0.30 0.37 0.37 0.36 0.32 0.28 0.27 0.26 0.20 0.10 0.05 0.03 0.02 0.01 0.02 0.04 0.08 0.11 0.11 0.11 0.11 0.15 0.18
0.08 0.15 0.27 0.35 0.40 0.38 0.35 0.29 0.24 0.20 0.23 0.27 0.33 0.37 0.36 0.33 0.31 0.29 0.29 0.30 0.34 0.37 0.34 0.27 0.23 0.17 0.13 0.11 0.08 0.05 0.02 0.01 0.01 0.01 0.02 0.04 0.06 0.09 0.12 0.11 0.13 0.15 0.15
0.08 0.16 0.27 0.37 0.44 0.42 0.33 0.28 0.26 0.24 0.26 0.29 0.33 0.37 0.34 0.31 0.30 0.27 0.29 0.31 0.31 0.28 0.24 0.17 0.13 0.10 0.08 0.05 0.04 0.03 0.02 0.01 0.01 0.01 0.02 0.04 0.05 0.09 0.14 0.14 0.15 0.14 0.14
0.12 0.20 0.31 0.39 0.47 0.48 0.42 0.36 0.31 0.28 0.30 0.31 0.35 0.38 0.36 0.32 0.29 0.27 0.29 0.29 0.26 0.19 0.15 0.13 0.07 0.07 0.05 0.04 0.03 0.03 0.03 0.02 0.01 0.01 0.03 0.04 0.06 0.13 0.15 0.16 0.16 0.16 0.17
0.22 0.31 0.39 0.42 0.50 0.52 0.52 0.48 0.43 0.37 0.34 0.36 0.38 0.40 0.42 0.37 0.33 0.34 0.31 0.21 0.16 0.15 0.12 0.10 0.07 0.05 0.04 0.03 0.03 0.03 0.03 0.02 0.01 0.01 0.03 0.05 0.09 0.17 0.17 0.18 0.19 0.21 0.23
0.34 0.43 0.50 0.51 0.56 0.55 0.55 0.54 0.52 0.49 0.46 0.44 0.43 0.45 0.49 0.45 0.39 0.35 0.31 0.18 0.13 0.13 0.13 0.12 0.09 0.06 0.04 0.03 0.03 0.04 0.04 0.02 0.01 0.01 0.03 0.06 0.10 0.18 0.18 0.16 0.18 0.22 0.24
0.48 0.57 0.62 0.66 0.69 0.62 0.61 0.58 0.55 0.58 0.58 0.56 0.53 0.52 0.55 0.53 0.46 0.36 0.28 0.18 0.13 0.12 0.13 0.14 0.13 0.09 0.06 0.04 0.03 0.04 0.03 0.02 0.01 0.02 0.04 0.05 0.07 0.14 0.14 0.13 0.13 0.14 0.16
0.72 0.80 0.86 0.82 0.76 0.70 0.67 0.65 0.59 0.61 0.64 0.64 0.59 0.57 0.56 0.54 0.48 0.37 0.26 0.19 0.15 0.15 0.13 0.12 0.13 0.10 0.10 0.07 0.05 0.04 0.03 0.01 0.01 0.03 0.05 0.06 0.08 0.14 0.13 0.12 0.12 0.12 0.12
1.07 1.08 1.08 1.03 0.96 0.85 0.74 0.64 0.61 0.62 0.64 0.64 0.58 0.50 0.44 0.44 0.44 0.39 0.24 0.20 0.16 0.17 0.16 0.12 0.11 0.10 0.09 0.07 0.06 0.04 0.02 0.01 0.01 0.04 0.06 0.07 0.10 0.15 0.16 0.16 0.16 0.16 0.16
1.45 1.35 1.22 1.15 1.11 1.01 0.91 0.73 0.64 0.65 0.68 0.63 0.53 0.44 0.42 0.45 0.43 0.38 0.22 0.16 0.16 0.15 0.16 0.15 0.12 0.11 0.07 0.05 0.04 0.03 0.03 0.03 0.03 0.05 0.06 0.06 0.09 0.13 0.15 0.16 0.16 0.18 0.20
1.56 1.47 1.36 1.24 1.20 1.14 1.00 0.87 0.81 0.72 0.70 0.66 0.53 0.44 0.44 0.44 0.44 0.38 0.26 0.16 0.16 0.14 0.14 0.15 0.15 0.11 0.08 0.05 0.04 0.03 0.04 0.03 0.03 0.04 0.04 0.04 0.07 0.11 0.13 0.15 0.15 0.15 0.16
1.78 1.69 1.54 1.38 1.34 1.34 1.22 1.00 0.91 0.79 0.75 0.76 0.62 0.53 0.48 0.50 0.49 0.47 0.40 0.27 0.24 0.17 0.15 0.14 0.14 0.09 0.06 0.05 0.05 0.04 0.03 0.04 0.04 0.04 0.04 0.04 0.06 0.09 0.13 0.15 0.15 0.15 0.17
1.91 1.81 1.72 1.58 1.43 1.39 1.31 1.18 1.01 0.88 0.77 0.76 0.76 0.65 0.60 0.53 0.46 0.43 0.42 0.33 0.31 0.24 0.21 0.18 0.14 0.10 0.09 0.08 0.07 0.06 0.05 0.05 0.05 0.05 0.04 0.03 0.04 0.07 0.11 0.14 0.15 0.17 0.19
1.81 1.81 1.71 1.63 1.48 1.38 1.31 1.24 1.06 0.99 0.86 0.76 0.79 0.81 0.69 0.60 0.51 0.46 0.47 0.43 0.37 0.31 0.25 0.21 0.16 0.13 0.12 0.10 0.09 0.07 0.06 0.06 0.06 0.05 0.05 0.03 0.03 0.04 0.06 0.10 0.13 0.17 0.23
1.77 1.80 1.79 1.70 1.54 1.45 1.30 1.19 1.09 1.01 0.99 0.96 0.84 0.79 0.78 0.67 0.60 0.55 0.48 0.45 0.41 0.34 0.29 0.24 0.19 0.17 0.15 0.13 0.11 0.10 0.09 0.08 0.07 0.08 0.07 0.06 0.04 0.03 0.04 0.07 0.13 0.22 0.32
1.75 1.87 1.83 1.80 1.72 1.50 1.34 1.24 1.15 1.16 1.11 1.06 0.96 0.85 0.83 0.76 0.69 0.66 0.55 0.46 0.41 0.39 0.36 0.32 0.29 0.25 0.18 0.14 0.11 0.10 0.10 0.09 0.08 0.08 0.07 0.07 0.06 0.05 0.04 0.06 0.10 0.19 0.31
1.73 1.90 1.89 1.80 1.72 1.60 1.41 1.31 1.19 1.13 1.21 1.12 1.06 0.98 0.91 0.90 0.86 0.79 0.68 0.56 0.55 0.55 0.50 0.42 0.37 0.30 0.22 0.18 0.15 0.13 0.12 0.10 0.09 0.08 0.07 0.06 0.06 0.05 0.05 0.05 0.08 0.14 0.22
1.75 1.87 1.92 1.87 1.78 1.80 1.72 1.53 1.40 1.27 1.18 1.24 1.19 1.07 0.95 0.92 0.93 0.88 0.76 0.71 0.73 0.66 0.56 0.48 0.41 0.36 0.29 0.26 0.24 0.21 0.18 0.15 0.13 0.12 0.10 0.09 0.08 0.07 0.08 0.08 0.09 0.11 0.14
1.89 1.98 1.98 1.93 1.86 1.99 2.07 1.92 1.68 1.50 1.27 1.19 1.22 1.14 1.06 1.04 1.00 0.94 0.84 0.83 0.88 0.82 0.70 0.62 0.53 0.48 0.42 0.39 0.36 0.27 0.22 0.20 0.17 0.15 0.13 0.12 0.12 0.12 0.12 0.12 0.13 0.12 0.13
1.92 2.00 1.99 1.94 1.91 1.92 1.94 1.86 1.70 1.50 1.41 1.29 1.24 1.25 1.21 1.19 1.25 1.14 0.96 0.93 0.97 0.89 0.79 0.77 0.76 0.72 0.62 0.59 0.52 0.36 0.25 0.21 0.18 0.14 0.14 0.13 0.13 0.14 0.14 0.16 0.16 0.15 0.15
1.70 1.96 2.02 1.99 2.02 1.87 1.72 1.77 1.78 1.74 1.60 1.49 1.43 1.39 1.32 1.28 1.28 1.26 1.21 1.14 1.13 1.10 1.05 0.99 0.96 0.90 0.82 0.80 0.72 0.63 0.41 0.27 0.19 0.16 0.17 0.17 0.17 0.17 0.16 0.17 0.18 0.18 0.17
1.40 1.71 1.88 1.99 2.03 2.03 1.97 2.08 2.02 1.91 1.70 1.46 1.29 1.29 1.31 1.33 1.34 1.29 1.29 1.31 1.30 1.26 1.18 1.13 1.11 1.08 1.01 0.96 0.92 0.93 0.67 0.40 0.27 0.21 0.20 0.21 0.21 0.21 0.21 0.22 0.21 0.21 0.21
1.16 1.39 1.58 1.85 2.04 2.12 2.18 2.13 2.01 1.78 1.55 1.33 1.30 1.41 1.43 1.40 1.36 1.34 1.33 1.34 1.37 1.33 1.23 1.26 1.28 1.18 1.17 1.11 1.06 0.98 0.84 0.65 0.56 0.39 0.27 0.28 0.29 0.27 0.27 0.26 0.24 0.24 0.24
1.03 1.21 1.34 1.57 1.88 1.98 1.92 1.90 1.98 1.84 1.63 1.52 1.49 1.46 1.44 1.37 1.32 1.29 1.29 1.32 1.31 1.32 1.28 1.29 1.33 1.32 1.27 1.22 1.16 1.11 1.10 0.97 0.81 0.73 0.54 0.40 0.38 0.37 0.37 0.37 0.35 0.32 0.31
0.86 1.05 1.23 1.32 1.53 1.69 1.68 1.72 1.79 1.71 1.65 1.55 1.42 1.37 1.39 1.35 1.26 1.21 1.21 1.24 1.28 1.30 1.26 1.27 1.34 1.40 1.40 1.30 1.19 1.09 1.05 1.00 0.90 0.88 0.78 0.59 0.51 0.42 0.41 0.40 0.40 0.40 0.41

GEFSSE_prec_meanprecacc_174.txt.gz
Total_Precipitation_Accumulation
0.09 0.15 0.33 0.34 0.33 0.31 0.28 0.26 0.26 0.27 0.26 0.28 0.27 0.28 0.30 0.28 0.23 0.19 0.20 0.24 0.26 0.33 0.38 0.39 0.43 0.46 0.43 0.42 0.38 0.22 0.12 0.10 0.08 0.07 0.08 0.11 0.15 0.15 0.13 0.13 0.14 0.15 0.17
0.09 0.15 0.31 0.36 0.38 0.35 0.32 0.28 0.25 0.22 0.26 0.28 0.31 0.34 0.36 0.32 0.26 0.23 0.25 0.27 0.32 0.39 0.40 0.39 0.33 0.29 0.28 0.27 0.20 0.10 0.05 0.03 0.02 0.01 0.02 0.04 0.08 0.11 0.11 0.11 0.12 0.16 0.18
0.10 0.18 0.31 0.37 0.43 0.40 0.37 0.30 0.25 0.21 0.23 0.28 0.34 0.38 0.37 0.34 0.32 0.30 0.31 0.31 0.36 0.40 0.36 0.29 0.24 0.18 0.13 0.12 0.09 0.05 0.03 0.01 0.01 0.01 0.02 0.04 0.06 0.10 0.12 0.12 0.13 0.16 0.16
0.11 0.19 0.31 0.41 0.47 0.45 0.36 0.31 0.28 0.25 0.26 0.29 0.34 0.38 0.35 0.32 0.32 0.28 0.29 0.32 0.34 0.31 0.26 0.19 0.15 0.12 0.09 0.07 0.05 0.03 0.02 0.01 0.01 0.01 0.02 0.04 0.05 0.10 0.15 0.15 0.15 0.14 0.14
0.15 0.22 0.36 0.45 0.52 0.52 0.45 0.39 0.34 0.30 0.31 0.32 0.36 0.39 0.37 0.33 0.31 0.29 0.30 0.30 0.28 0.21 0.19 0.16 0.10 0.09 0.07 0.06 0.04 0.03 0.03 0.02 0.01 0.01 0.03 0.04 0.07 0.14 0.16 0.17 0.17 0.16 0.18
0.26 0.36 0.45 0.49 0.55 0.57 0.55 0.51 0.46 0.39 0.36 0.38 0.40 0.42 0.43 0.38 0.34 0.35 0.32 0.22 0.17 0.17 0.15 0.13 0.09 0.07 0.06 0.05 0.04 0.03 0.03 0.02 0.01 0.01 0.04 0.06 0.09 0.18 0.18 0.18 0.20 0.21 0.24
0.42 0.50 0.56 0.59 0.64 0.61 0.60 0.58 0.55 0.52 0.49 0.47 0.45 0.46 0.51 0.47 0.41 0.36 0.31 0.19 0.14 0.15 0.16 0.15 0.12 0.08 0.06 0.05 0.03 0.04 0.04 0.03 0.01 0.02 0.04 0.06 0.10 0.19 0.19 0.17 0.19 0.22 0.25
0.60 0.68 0.70 0.75 0.77 0.69 0.66 0.63 0.60 0.63 0.63 0.59 0.55 0.55 0.57 0.56 0.49 0.37 0.29 0.18 0.14 0.14 0.15 0.17 0.16 0.12 0.08 0.05 0.04 0.04 0.03 0.02 0.01 0.02 0.04 0.05 0.08 0.15 0.15 0.13 0.13 0.15 0.17
0.88 0.95 0.98 0.91 0.85 0.79 0.73 0.70 0.65 0.66 0.67 0.67 0.62 0.59 0.58 0.56 0.50 0.39 0.27 0.19 0.16 0.16 0.15 0.15 0.16 0.14 0.12 0.08 0.05 0.04 0.03 0.01 0.01 0.03 0.05 0.07 0.11 0.18 0.16 0.14 0.14 0.14 0.15
1.25 1.26 1.25 1.16 1.05 0.94 0.81 0.71 0.66 0.67 0.68 0.66 0.60 0.51 0.45 0.46 0.47 0.40 0.25 0.20 0.17 0.18 0.18 0.15 0.14 0.14 0.11 0.09 0.06 0.04 0.02 0.01 0.01 0.04 0.06 0.08 0.12 0.19 0.20 0.18 0.18 0.19 0.18
1.65 1.54 1.43 1.31 1.22 1.10 0.98 0.80 0.70 0.69 0.73 0.67 0.55 0.46 0.44 0.47 0.44 0.40 0.23 0.17 0.16 0.16 0.19 0.18 0.16 0.15 0.10 0.06 0.05 0.04 0.03 0.03 0.03 0.05 0.06 0.06 0.11 0.15 0.17 0.17 0.17 0.19 0.21
1.77 1.67 1.57 1.45 1.33 1.22 1.07 0.93 0.84 0.74 0.73 0.70 0.56 0.46 0.45 0.46 0.45 0.39 0.27 0.17 0.17 0.15 0.17 0.20 0.18 0.16 0.12 0.07 0.05 0.03 0.04 0.04 0.04 0.04 0.04 0.04 0.08 0.12 0.13 0.15 0.16 0.16 0.17
2.01 1.92 1.77 1.61 1.53 1.43 1.30 1.07 0.95 0.82 0.76 0.79 0.66 0.57 0.52 0.53 0.51 0.48 0.41 0.28 0.25 0.17 0.17 0.21 0.18 0.13 0.12 0.07 0.05 0.04 0.03 0.04 0.04 0.04 0.04 0.04 0.06 0.10 0.14 0.16 0.16 0.16 0.17
2.14 2.08 2.01 1.85 1.65 1.55 1.39 1.27 1.06 0.92 0.79 0.77 0.78 0.70 0.65 0.58 0.51 0.47 0.44 0.35 0.32 0.25 0.22 0.26 0.21 0.14 0.16 0.11 0.08 0.06 0.05 0.05 0.05 0.05 0.05 0.04 0.04 0.07 0.12 0.15 0.16 0.18 0.20
2.00 2.06 2.04 1.96 1.75 1.58 1.43 1.32 1.13 1.03 0.89 0.78 0.81 0.84 0.74 0.65 0.56 0.50 0.51 0.46 0.40 0.33 0.27 0.27 0.26 0.19 0.18 0.15 0.11 0.08 0.07 0.06 0.06 0.06 0.05 0.03 0.03 0.04 0.06 0.11 0.14 0.18 0.24
1.95 2.00 2.08 2.04 1.85 1.68 1.45 1.26 1.15 1.07 1.02 0.99 0.86 0.83 0.82 0.71 0.64 0.60 0.53 0.48 0.44 0.38 0.31 0.27 0.26 0.24 0.19 0.16 0.14 0.10 0.09 0.08 0.07 0.08 0.07 0.06 0.05 0.04 0.04 0.07 0.14 0.23 0.33
1.92 2.06 2.08 2.12 2.05 1.75 1.53 1.34 1.22 1.25 1.18 1.10 0.99 0.89 0.87 0.80 0.72 0.69 0.60 0.50 0.45 0.44 0.41 0.37 0.35 0.31 0.22 0.16 0.12 0.11 0.10 0.09 0.08 0.08 0.08 0.07 0.06 0.05 0.04 0.06 0.10 0.20 0.32
1.86 2.06 2.08 2.06 2.07 1.92 1.61 1.44 1.28 1.21 1.30 1.20 1.12 1.02 0.94 0.93 0.89 0.83 0.72 0.61 0.60 0.62 0.56 0.47 0.43 0.37 0.27 0.21 0.17 0.15 0.12 0.11 0.09 0.08 0.08 0.07 0.06 0.05 0.05 0.05 0.08 0.14 0.23
1.86 2.00 2.09 2.09 2.07 2.14 1.98 1.69 1.53 1.37 1.26 1.33 1.29 1.15 1.00 0.96 0.96 0.89 0.79 0.75 0.78 0.72 0.63 0.55 0.48 0.44 0.35 0.29 0.26 0.22 0.19 0.16 0.13 0.12 0.10 0.09 0.08 0.07 0.08 0.09 0.09 0.11 0.14
1.98 2.06 2.10 2.08 2.08 2.28 2.35 2.11 1.83 1.65 1.38 1.27 1.29 1.19 1.10 1.07 1.02 0.96 0.86 0.85 0.91 0.86 0.75 0.68 0.60 0.55 0.48 0.43 0.38 0.29 0.22 0.20 0.18 0.15 0.13 0.12 0.12 0.12 0.12 0.12 0.13 0.12 0.13
1.99 2.07 2.08 2.04 2.03 2.08 2.17 2.08 1.84 1.61 1.50 1.36 1.28 1.28 1.24 1.22 1.27 1.16 0.98 0.95 0.99 0.91 0.83 0.81 0.81 0.78 0.69 0.63 0.55 0.38 0.26 0.21 0.18 0.15 0.14 0.13 0.13 0.14 0.14 0.16 0.16 0.15 0.15
1.77 2.03 2.09 2.07 2.10 1.96 1.83 1.91 1.92 1.85 1.70 1.57 1.49 1.44 1.36 1.31 1.30 1.29 1.23 1.16 1.15 1.13 1.08 1.01 1.00 0.96 0.89 0.85 0.76 0.66 0.43 0.28 0.19 0.16 0.17 0.17 0.17 0.17 0.17 0.17 0.18 0.18 0.17
1.47 1.75 1.94 2.04 2.09 2.10 2.03 2.13 2.07 1.98 1.78 1.54 1.37 1.37 1.37 1.38 1.39 1.34 1.33 1.34 1.33 1.29 1.21 1.16 1.14 1.13 1.08 1.01 0.95 0.96 0.70 0.42 0.28 0.22 0.21 0.21 0.21 0.21 0.21 0.22 0.21 0.21 0.21
1.22 1.43 1.61 1.89 2.08 2.16 2.22 2.17 2.03 1.81 1.59 1.38 1.36 1.47 1.50 1.47 1.42 1.38 1.37 1.38 1.41 1.37 1.28 1.31 1.32 1.21 1.22 1.17 1.11 1.01 0.85 0.66 0.57 0.41 0.28 0.28 0.29 0.28 0.27 0.26 0.24 0.24 0.24
1.07 1.25 1.37 1.59 1.90 2.00 1.94 1.92 2.00 1.87 1.65 1.54 1.51 1.48 1.46 1.38 1.34 1.31 1.30 1.33 1.32 1.33 1.30 1.32 1.36 1.35 1.30 1.26 1.21 1.16 1.13 0.98 0.82 0.74 0.55 0.41 0.39 0.37 0.37 0.37 0.35 0.32 0.31
0.90 1.08 1.26 1.33 1.54 1.70 1.70 1.73 1.80 1.72 1.66 1.56 1.43 1.38 1.39 1.35 1.26 1.22 1.21 1.24 1.29 1.30 1.27 1.28 1.37 1.43 1.43 1.34 1.23 1.12 1.09 1.03 0.91 0.89 0.79 0.60 0.52 0.43 0.41 0.40 0.40 0.40 0.41

GEFSSE_prec_meanprecacc_180.txt.gz
Total_Precipitation_Accumulation
0.10 0.16 0.37 0.38 0.36 0.35 0.31 0.29 0.28 0.28 0.27 0.29 0.28 0.29 0.30 0.28 0.24 0.19 0.21 0.25 0.27 0.34 0.40 0.42 0.46 0.48 0.44 0.43 0.39 0.22 0.13 0.10 0.09 0.08 0.08 0.11 0.16 0.16 0.13 0.13 0.14 0.15 0.18
0.10 0.16 0.35 0.41 0.42 0.39 0.36 0.31 0.27 0.24 0.27 0.29 0.31 0.36 0.37 0.34 0.27 0.24 0.26 0.28 0.33 0.40 0.42 0.41 0.36 0.32 0.30 0.28 0.21 0.11 0.06 0.03 0.03 0.02 0.02 0.04 0.08 0.12 0.12 0.12 0.12 0.16 0.20
0.11 0.20 0.36 0.43 0.47 0.44 0.42 0.35 0.27 0.23 0.25 0.29 0.35 0.40 0.38 0.34 0.32 0.31 0.31 0.32 0.37 0.41 0.38 0.32 0.27 0.21 0.16 0.13 0.10 0.06 0.03 0.02 0.02 0.01 0.02 0.04 0.07 0.11 0.13 0.13 0.14 0.16 0.17
0.14 0.22 0.35 0.47 0.53 0.49 0.41 0.36 0.32 0.28 0.28 0.31 0.35 0.39 0.36 0.33 0.32 0.29 0.30 0.33 0.34 0.32 0.28 0.22 0.18 0.14 0.11 0.08 0.06 0.04 0.02 0.02 0.01 0.01 0.03 0.04 0.06 0.12 0.17 0.16 0.16 0.15 0.15
0.19 0.26 0.41 0.53 0.59 0.58 0.50 0.45 0.40 0.34 0.34 0.34 0.38 0.40 0.38 0.35 0.32 0.30 0.31 0.30 0.28 0.22 0.20 0.19 0.14 0.12 0.09 0.08 0.06 0.05 0.04 0.02 0.01 0.01 0.03 0.05 0.07 0.15 0.17 0.17 0.17 0.17 0.18
0.31 0.42 0.51 0.58 0.65 0.64 0.61 0.57 0.53 0.44 0.39 0.40 0.43 0.44 0.45 0.39 0.35 0.36 0.33 0.22 0.18 0.17 0.17 0.15 0.14 0.11 0.08 0.07 0.06 0.06 0.05 0.03 0.01 0.01 0.04 0.06 0.09 0.19 0.19 0.19 0.21 0.23 0.25
0.48 0.59 0.65 0.70 0.75 0.69 0.65 0.65 0.62 0.58 0.53 0.51 0.50 0.50 0.54 0.49 0.42 0.37 0.32 0.19 0.14 0.16 0.17 0.17 0.16 0.12 0.08 0.06 0.05 0.06 0.05 0.03 0.02 0.02 0.04 0.07 0.11 0.20 0.19 0.18 0.20 0.23 0.26
0.69 0.79 0.83 0.88 0.91 0.80 0.73 0.69 0.68 0.71 0.69 0.64 0.60 0.59 0.60 0.59 0.51 0.39 0.30 0.19 0.16 0.15 0.16 0.19 0.19 0.15 0.11 0.08 0.06 0.05 0.04 0.02 0.02 0.02 0.04 0.06 0.09 0.17 0.17 0.14 0.14 0.16 0.18
1.04 1.09 1.14 1.08 1.00 0.93 0.83 0.77 0.74 0.76 0.75 0.72 0.66 0.63 0.61 0.59 0.54 0.42 0.29 0.21 0.17 0.17 0.16 0.16 0.18 0.17 0.14 0.10 0.07 0.06 0.04 0.01 0.01 0.03 0.05 0.07 0.12 0.22 0.21 0.18 0.16 0.16 0.17
1.46 1.45 1.46 1.40 1.23 1.07 0.94 0.82 0.77 0.77 0.77 0.73 0.64 0.55 0.49 0.49 0.50 0.43 0.27 0.23 0.18 0.19 0.19 0.16 0.16 0.17 0.13 0.11 0.08 0.05 0.03 0.01 0.01 0.04 0.07 0.08 0.13 0.22 0.23 0.20 0.21 0.22 0.20
1.87 1.80 1.67 1.58 1.47 1.27 1.12 0.93 0.82 0.78 0.81 0.74 0.59 0.50 0.48 0.50 0.47 0.42 0.24 0.18 0.18 0.17 0.20 0.19 0.18 0.18 0.12 0.08 0.07 0.05 0.03 0.03 0.03 0.05 0.06 0.07 0.12 0.17 0.19 0.18 0.19 0.21 0.23
2.01 1.99 1.89 1.75 1.60 1.45 1.25 1.07 0.93 0.81 0.80 0.77 0.60 0.50 0.49 0.49 0.47 0.41 0.29 0.19 0.18 0.16 0.18 0.21 0.20 0.18 0.14 0.08 0.06 0.05 0.04 0.04 0.04 0.04 0.04 0.05 0.09 0.14 0.15 0.16 0.17 0.17 0.18
2.25 2.30 2.20 2.01 1.88 1.72 1.53 1.25 1.04 0.88 0.81 0.84 0.69 0.60 0.55 0.57 0.55 0.52 0.43 0.31 0.27 0.19 0.18 0.22 0.19 0.14 0.14 0.09 0.07 0.06 0.04 0.04 0.05 0.04 0.04 0.05 0.07 0.12 0.15 0.16 0.17 0.17 0.18
2.35 2.48 2.55 2.34 2.11 1.90 1.68 1.48 1.18 0.99 0.85 0.81 0.81 0.72 0.67 0.61 0.55 0.52 0.49 0.39 0.35 0.27 0.23 0.26 0.21 0.15 0.17 0.14 0.10 0.08 0.06 0.05 0.05 0.05 0.05 0.05 0.05 0.09 0.13 0.17 0.17 0.19 0.21
2.20 2.41 2.58 2.44 2.20 2.00 1.77 1.57 1.27 1.10 0.96 0.84 0.84 0.87 0.76 0.68 0.60 0.56 0.56 0.52 0.45 0.37 0.30 0.28 0.26 0.21 0.21 0.19 0.14 0.10 0.07 0.06 0.06 0.06 0.05 0.04 0.04 0.05 0.07 0.12 0.16 0.20 0.26
2.18 2.30 2.48 2.45 2.23 2.06 1.82 1.55 1.33 1.15 1.07 1.05 0.92 0.87 0.85 0.74 0.68 0.64 0.57 0.54 0.50 0.43 0.35 0.29 0.27 0.25 0.22 0.20 0.17 0.13 0.10 0.09 0.08 0.08 0.07 0.06 0.05 0.04 0.05 0.08 0.15 0.25 0.35
2.18 2.32 2.36 2.43 2.37 2.07 1.86 1.61 1.41 1.35 1.23 1.14 1.03 0.93 0.92 0.84 0.75 0.73 0.63 0.54 0.50 0.49 0.45 0.40 0.38 0.33 0.27 0.21 0.16 0.14 0.12 0.10 0.09 0.08 0.08 0.07 0.06 0.05 0.05 0.06 0.11 0.21 0.33
2.11 2.30 2.31 2.29 2.32 2.21 1.97 1.77 1.47 1.32 1.36 1.24 1.15 1.06 0.98 0.96 0.92 0.85 0.74 0.64 0.65 0.67 0.61 0.52 0.47 0.39 0.31 0.26 0.20 0.17 0.15 0.12 0.10 0.09 0.09 0.07 0.07 0.06 0.06 0.06 0.09 0.15 0.23
2.05 2.22 2.30 2.29 2.26 2.37 2.27 2.05 1.83 1.53 1.37 1.41 1.35 1.20 1.03 0.98 0.98 0.92 0.81 0.77 0.81 0.78 0.70 0.63 0.56 0.49 0.40 0.36 0.31 0.25 0.21 0.17 0.14 0.13 0.11 0.10 0.09 0.09 0.09 0.10 0.10 0.11 0.14
2.12 2.24 2.30 2.28 2.24 2.45 2.57 2.38 2.12 1.86 1.52 1.35 1.34 1.24 1.13 1.10 1.04 0.98 0.87 0.86 0.92 0.87 0.79 0.73 0.67 0.62 0.55 0.50 0.45 0.32 0.24 0.22 0.19 0.16 0.14 0.13 0.12 0.12 0.13 0.13 0.13 0.13 0.13
2.11 2.18 2.23 2.23 2.21 2.22 2.33 2.30 2.07 1.83 1.66 1.46 1.34 1.32 1.26 1.23 1.28 1.17 0.99 0.96 1.00 0.92 0.84 0.83 0.84 0.81 0.73 0.69 0.63 0.44 0.30 0.23 0.19 0.16 0.15 0.14 0.13 0.14 0.14 0.16 0.16 0.15 0.15
1.87 2.10 2.18 2.22 2.28 2.10 1.95 2.07 2.09 2.01 1.84 1.67 1.57 1.49 1.38 1.33 1.31 1.29 1.24 1.17 1.15 1.13 1.09 1.02 1.01 0.98 0.91 0.88 0.82 0.72 0.48 0.31 0.21 0.17 0.18 0.18 0.17 0.18 0.17 0.18 0.18 0.18 0.17
1.58 1.82 1.99 2.12 2.24 2.26 2.17 2.25 2.20 2.11 1.90 1.63 1.44 1.41 1.41 1.41 1.41 1.36 1.35 1.35 1.34 1.30 1.22 1.17 1.15 1.14 1.10 1.03 0.98 1.00 0.75 0.47 0.30 0.23 0.21 0.22 0.22 0.22 0.21 0.22 0.21 0.21 0.21
1.32 1.51 1.66 1.93 2.16 2.28 2.35 2.26 2.13 1.94 1.70 1.47 1.42 1.52 1.55 1.51 1.45 1.41 1.39 1.40 1.44 1.39 1.30 1.32 1.33 1.22 1.24 1.19 1.13 1.04 0.89 0.70 0.60 0.42 0.29 0.29 0.30 0.28 0.28 0.26 0.24 0.24 0.24
1.16 1.33 1.42 1.64 1.95 2.09 2.03 1.99 2.07 1.96 1.76 1.63 1.57 1.53 1.50 1.43 1.38 1.35 1.35 1.38 1.37 1.37 1.33 1.35 1.39 1.38 1.32 1.29 1.23 1.18 1.16 1.01 0.85 0.76 0.56 0.42 0.39 0.37 0.38 0.37 0.35 0.33 0.31
0.98 1.17 1.33 1.39 1.58 1.75 1.77 1.79 1.84 1.77 1.71 1.61 1.48 1.43 1.44 1.39 1.30 1.24 1.23 1.26 1.31 1.32 1.29 1.29 1.38 1.45 1.46 1.36 1.25 1.15 1.12 1.07 0.95 0.92 0.82 0.61 0.52 0.44 0.42 0.41 0.40 0.40 0.42

GEFSSE_prec_meanprecacc_186.txt.gz
Total_Precipitation_Accumulation
0.10 0.16 0.39 0.43 0.41 0.39 0.35 0.32 0.31 0.31 0.30 0.32 0.31 0.31 0.32 0.30 0.25 0.20 0.22 0.25 0.28 0.35 0.41 0.43 0.47 0.49 0.46 0.45 0.41 0.24 0.14 0.11 0.10 0.08 0.08 0.12 0.16 0.16 0.14 0.14 0.15 0.16 0.19
0.10 0.16 0.37 0.46 0.48 0.46 0.41 0.35 0.31 0.28 0.31 0.34 0.35 0.38 0.39 0.35 0.28 0.25 0.26 0.28 0.34 0.42 0.43 0.42 0.37 0.34 0.32 0.31 0.24 0.13 0.07 0.04 0.03 0.02 0.02 0.04 0.09 0.13 0.13 0.12 0.13 0.17 0.20
0.11 0.20 0.38 0.48 0.54 0.52 0.47 0.39 0.31 0.27 0.29 0.34 0.39 0.42 0.40 0.36 0.34 0.32 0.32 0.33 0.39 0.42 0.39 0.33 0.28 0.22 0.17 0.15 0.13 0.08 0.04 0.02 0.02 0.02 0.03 0.05 0.07 0.12 0.14 0.13 0.14 0.17 0.18
0.14 0.23 0.38 0.53 0.60 0.58 0.47 0.41 0.36 0.32 0.32 0.37 0.39 0.42 0.39 0.35 0.34 0.30 0.31 0.34 0.36 0.33 0.28 0.22 0.19 0.15 0.12 0.10 0.08 0.06 0.03 0.02 0.01 0.01 0.03 0.05 0.07 0.14 0.18 0.17 0.16 0.16 0.16
0.20 0.28 0.44 0.58 0.67 0.67 0.57 0.50 0.44 0.38 0.37 0.38 0.42 0.44 0.42 0.38 0.34 0.32 0.32 0.32 0.29 0.23 0.20 0.19 0.15 0.13 0.11 0.09 0.08 0.07 0.05 0.03 0.01 0.02 0.04 0.05 0.08 0.17 0.18 0.18 0.18 0.18 0.20
0.32 0.44 0.55 0.64 0.73 0.74 0.70 0.63 0.58 0.49 0.43 0.44 0.47 0.49 0.49 0.44 0.38 0.39 0.34 0.24 0.19 0.18 0.17 0.16 0.15 0.13 0.10 0.09 0.08 0.07 0.06 0.04 0.01 0.02 0.04 0.06 0.10 0.21 0.20 0.20 0.21 0.23 0.26
0.50 0.62 0.70 0.77 0.84 0.80 0.77 0.73 0.67 0.64 0.60 0.56 0.54 0.55 0.57 0.53 0.45 0.40 0.34 0.21 0.15 0.17 0.18 0.18 0.17 0.14 0.12 0.08 0.07 0.07 0.07 0.04 0.02 0.02 0.04 0.07 0.11 0.21 0.20 0.18 0.21 0.24 0.27
0.71 0.84 0.92 0.99 1.04 0.94 0.87 0.79 0.74 0.77 0.76 0.72 0.69 0.66 0.64 0.62 0.54 0.43 0.33 0.21 0.17 0.17 0.17 0.20 0.20 0.17 0.15 0.11 0.07 0.06 0.05 0.02 0.02 0.02 0.04 0.06 0.09 0.18 0.18 0.16 0.16 0.18 0.21
1.09 1.15 1.22 1.20 1.15 1.09 0.99 0.92 0.83 0.82 0.83 0.82 0.76 0.71 0.66 0.62 0.56 0.45 0.32 0.23 0.20 0.19 0.17 0.17 0.19 0.18 0.18 0.15 0.08 0.07 0.04 0.02 0.01 0.03 0.06 0.08 0.12 0.23 0.22 0.20 0.18 0.18 0.19
1.52 1.52 1.54 1.51 1.38 1.25 1.11 0.98 0.93 0.87 0.88 0.86 0.76 0.62 0.53 0.52 0.52 0.45 0.30 0.25 0.21 0.22 0.21 0.18 0.18 0.19 0.15 0.15 0.10 0.07 0.04 0.02 0.02 0.04 0.07 0.08 0.13 0.23 0.24 0.22 0.22 0.22 0.21
1.95 1.88 1.76 1.70 1.65 1.47 1.34 1.11 1.03 0.96 0.93 0.86 0.70 0.58 0.53 0.55 0.50 0.44 0.26 0.20 0.21 0.21 0.22 0.21 0.19 0.19 0.14 0.11 0.10 0.07 0.05 0.04 0.04 0.05 0.06 0.07 0.13 0.18 0.20 0.20 0.20 0.21 0.23
2.10 2.09 1.99 1.88 1.81 1.71 1.52 1.40 1.23 1.04 0.94 0.87 0.71 0.58 0.56 0.55 0.52 0.44 0.32 0.21 0.20 0.19 0.22 0.24 0.21 0.19 0.15 0.10 0.09 0.07 0.05 0.05 0.04 0.04 0.05 0.05 0.10 0.16 0.17 0.18 0.18 0.18 0.18
2.35 2.42 2.34 2.18 2.14 2.09 1.88 1.66 1.50 1.18 0.97 0.92 0.79 0.71 0.63 0.63 0.60 0.56 0.47 0.34 0.29 0.21 0.21 0.24 0.21 0.17 0.16 0.11 0.10 0.08 0.06 0.05 0.05 0.05 0.05 0.05 0.08 0.14 0.17 0.18 0.18 0.18 0.19
2.48 2.63 2.75 2.59 2.46 2.35 2.08 1.87 1.67 1.36 1.04 0.90 0.87 0.79 0.75 0.68 0.60 0.56 0.52 0.43 0.38 0.30 0.27 0.30 0.25 0.19 0.21 0.16 0.12 0.11 0.10 0.07 0.06 0.06 0.06 0.06 0.07 0.10 0.14 0.18 0.18 0.20 0.22
2.34 2.59 2.86 2.74 2.56 2.40 2.13 1.90 1.66 1.44 1.18 0.96 0.90 0.91 0.81 0.74 0.66 0.61 0.60 0.55 0.48 0.40 0.33 0.33 0.33 0.27 0.27 0.24 0.18 0.14 0.13 0.09 0.08 0.07 0.06 0.06 0.06 0.07 0.09 0.13 0.17 0.22 0.28
2.35 2.47 2.74 2.76 2.50 2.39 2.17 1.86 1.65 1.44 1.29 1.19 1.01 0.92 0.89 0.78 0.73 0.69 0.61 0.56 0.52 0.45 0.37 0.32 0.32 0.31 0.28 0.27 0.24 0.19 0.17 0.14 0.10 0.10 0.09 0.08 0.07 0.06 0.05 0.08 0.16 0.26 0.37
2.39 2.51 2.57 2.70 2.65 2.37 2.21 1.90 1.68 1.61 1.44 1.30 1.13 0.99 0.96 0.88 0.79 0.76 0.66 0.56 0.51 0.50 0.46 0.41 0.40 0.37 0.32 0.28 0.23 0.21 0.20 0.16 0.10 0.09 0.08 0.08 0.07 0.06 0.05 0.06 0.11 0.21 0.34
2.31 2.51 2.54 2.53 2.61 2.49 2.27 2.08 1.73 1.55 1.56 1.39 1.26 1.13 1.03 1.00 0.95 0.89 0.77 0.66 0.66 0.68 0.62 0.53 0.49 0.42 0.36 0.33 0.29 0.26 0.23 0.21 0.12 0.10 0.09 0.08 0.07 0.07 0.07 0.06 0.09 0.15 0.24
2.22 2.42 2.53 2.52 2.52 2.63 2.50 2.30 2.10 1.76 1.56 1.55 1.44 1.27 1.08 1.01 1.00 0.94 0.83 0.79 0.83 0.78 0.71 0.64 0.57 0.52 0.45 0.42 0.38 0.35 0.32 0.27 0.18 0.14 0.12 0.11 0.10 0.09 0.09 0.10 0.11 0.12 0.15
2.26 2.41 2.52 2.49 2.48 2.70 2.80 2.58 2.32 2.07 1.70 1.51 1.46 1.33 1.19 1.13 1.07 0.99 0.88 0.87 0.93 0.88 0.79 0.74 0.67 0.63 0.57 0.55 0.52 0.41 0.35 0.33 0.27 0.19 0.15 0.13 0.13 0.13 0.13 0.13 0.13 0.13 0.14
2.25 2.32 2.44 2.45 2.40 2.43 2.54 2.49 2.25 2.00 1.80 1.57 1.44 1.42 1.35 1.28 1.31 1.18 0.99 0.96 1.00 0.93 0.85 0.84 0.85 0.82 0.74 0.71 0.66 0.49 0.38 0.32 0.28 0.20 0.16 0.15 0.14 0.15 0.15 0.17 0.17 0.16 0.15
2.01 2.24 2.35 2.43 2.47 2.28 2.13 2.26 2.26 2.16 1.98 1.80 1.67 1.58 1.47 1.39 1.34 1.30 1.24 1.17 1.15 1.14 1.09 1.03 1.02 0.99 0.92 0.89 0.84 0.76 0.54 0.38 0.29 0.22 0.20 0.19 0.18 0.19 0.18 0.18 0.18 0.18 0.18
1.73 1.97 2.15 2.30 2.42 2.42 2.31 2.40 2.35 2.25 2.03 1.76 1.56 1.51 1.50 1.47 1.44 1.37 1.35 1.36 1.34 1.30 1.22 1.17 1.15 1.15 1.11 1.04 1.00 1.03 0.78 0.52 0.37 0.30 0.26 0.24 0.23 0.23 0.23 0.23 0.22 0.22 0.21
1.47 1.65 1.81 2.09 2.30 2.42 2.48 2.38 2.23 2.04 1.81 1.57 1.52 1.61 1.62 1.57 1.49 1.43 1.41 1.41 1.44 1.40 1.31 1.33 1.34 1.23 1.25 1.21 1.15 1.06 0.92 0.73 0.64 0.48 0.36 0.34 0.32 0.30 0.29 0.27 0.25 0.24 0.24
1.28 1.44 1.56 1.76 2.06 2.18 2.14 2.13 2.15 2.03 1.83 1.72 1.65 1.60 1.57 1.48 1.42 1.37 1.36 1.39 1.38 1.38 1.35 1.36 1.40 1.39 1.34 1.30 1.24 1.20 1.18 1.04 0.88 0.80 0.61 0.47 0.45 0.41 0.40 0.38 0.36 0.33 0.31
1.07 1.25 1.44 1.47 1.64 1.80 1.82 1.89 1.93 1.83 1.76 1.68 1.56 1.51 1.50 1.45 1.34 1.26 1.24 1.26 1.31 1.32 1.29 1.30 1.39 1.46 1.47 1.37 1.26 1.16 1.14 1.09 0.98 0.96 0.85 0.65 0.57 0.48 0.47 0.44 0.42 0.41 0.42

GEFSSE_prec_meanprecacc_192.txt.gz
Total_Precipitation_Accumulation
0.10 0.16 0.40 0.45 0.44 0.43 0.39 0.36 0.35 0.35 0.35 0.37 0.35 0.35 0.36 0.34 0.28 0.22 0.22 0.26 0.29 0.37 0.43 0.46 0.50 0.52 0.48 0.47 0.43 0.26 0.16 0.12 0.10 0.09 0.09 0.13 0.17 0.18 0.15 0.15 0.16 0.17 0.20
0.10 0.16 0.37 0.47 0.51 0.50 0.46 0.41 0.36 0.32 0.35 0.38 0.40 0.43 0.43 0.39 0.31 0.27 0.28 0.29 0.35 0.43 0.45 0.45 0.40 0.36 0.34 0.33 0.25 0.14 0.08 0.05 0.03 0.02 0.02 0.04 0.09 0.14 0.13 0.13 0.14 0.18 0.21
0.12 0.20 0.38 0.49 0.57 0.56 0.53 0.47 0.37 0.31 0.34 0.38 0.43 0.48 0.44 0.40 0.36 0.34 0.34 0.34 0.40 0.44 0.41 0.35 0.29 0.23 0.19 0.17 0.13 0.08 0.05 0.03 0.02 0.02 0.03 0.05 0.08 0.12 0.14 0.13 0.15 0.18 0.18
0.15 0.24 0.38 0.54 0.62 0.62 0.54 0.49 0.42 0.37 0.37 0.41 0.43 0.47 0.44 0.40 0.38 0.33 0.34 0.36 0.37 0.35 0.30 0.24 0.21 0.16 0.14 0.11 0.09 0.07 0.04 0.03 0.02 0.02 0.04 0.06 0.08 0.15 0.19 0.18 0.17 0.17 0.17
0.21 0.30 0.45 0.59 0.69 0.71 0.65 0.59 0.51 0.44 0.43 0.45 0.46 0.48 0.47 0.43 0.40 0.37 0.35 0.35 0.32 0.25 0.22 0.21 0.16 0.14 0.12 0.10 0.09 0.08 0.05 0.04 0.02 0.02 0.05 0.07 0.10 0.19 0.20 0.19 0.20 0.20 0.22
0.34 0.47 0.57 0.65 0.75 0.78 0.76 0.72 0.67 0.57 0.50 0.52 0.52 0.53 0.55 0.49 0.44 0.45 0.38 0.27 0.22 0.21 0.18 0.17 0.16 0.14 0.11 0.10 0.09 0.09 0.08 0.05 0.02 0.03 0.05 0.08 0.12 0.24 0.23 0.21 0.23 0.25 0.28
0.52 0.65 0.74 0.79 0.87 0.84 0.82 0.81 0.77 0.74 0.67 0.64 0.60 0.59 0.62 0.58 0.51 0.47 0.41 0.25 0.19 0.20 0.19 0.20 0.18 0.16 0.14 0.10 0.08 0.08 0.08 0.05 0.02 0.03 0.05 0.09 0.13 0.23 0.22 0.20 0.22 0.26 0.28
0.74 0.88 0.97 1.03 1.07 0.98 0.92 0.85 0.83 0.87 0.87 0.82 0.76 0.71 0.68 0.65 0.58 0.48 0.40 0.26 0.21 0.20 0.19 0.22 0.22 0.18 0.17 0.12 0.07 0.07 0.06 0.03 0.02 0.03 0.05 0.08 0.11 0.21 0.20 0.17 0.17 0.19 0.22
1.13 1.21 1.29 1.28 1.21 1.16 1.06 0.98 0.92 0.94 0.95 0.92 0.85 0.78 0.70 0.66 0.60 0.49 0.37 0.28 0.24 0.23 0.20 0.20 0.22 0.20 0.19 0.16 0.09 0.08 0.05 0.02 0.01 0.04 0.06 0.09 0.14 0.25 0.23 0.21 0.19 0.18 0.19
1.58 1.60 1.63 1.60 1.45 1.32 1.19 1.07 1.02 0.98 1.01 0.99 0.88 0.70 0.58 0.56 0.56 0.49 0.33 0.29 0.25 0.25 0.24 0.21 0.22 0.21 0.16 0.16 0.11 0.08 0.05 0.02 0.02 0.05 0.08 0.09 0.15 0.25 0.25 0.22 0.23 0.23 0.21
2.01 1.95 1.84 1.80 1.74 1.56 1.43 1.22 1.13 1.06 1.06 1.01 0.83 0.67 0.59 0.60 0.55 0.47 0.29 0.23 0.24 0.23 0.25 0.25 0.22 0.21 0.15 0.12 0.11 0.08 0.06 0.04 0.05 0.07 0.08 0.08 0.14 0.19 0.21 0.20 0.20 0.22 0.24
2.17 2.16 2.06 1.98 1.95 1.84 1.64 1.50 1.37 1.18 1.08 1.01 0.84 0.69 0.64 0.60 0.57 0.47 0.34 0.23 0.23 0.22 0.25 0.27 0.25 0.22 0.18 0.11 0.11 0.09 0.07 0.06 0.05 0.06 0.07 0.07 0.12 0.16 0.18 0.19 0.19 0.18 0.19
2.42 2.50 2.42 2.28 2.27 2.26 2.04 1.78 1.63 1.37 1.15 1.10 0.96 0.86 0.74 0.72 0.66 0.59 0.49 0.36 0.31 0.23 0.23 0.28 0.25 0.19 0.18 0.13 0.12 0.11 0.08 0.07 0.07 0.07 0.07 0.07 0.10 0.14 0.18 0.19 0.19 0.19 0.20
2.57 2.72 2.85 2.70 2.59 2.54 2.29 2.04 1.78 1.54 1.26 1.11 1.09 1.02 0.92 0.80 0.68 0.60 0.54 0.44 0.40 0.32 0.28 0.33 0.28 0.23 0.24 0.18 0.15 0.15 0.13 0.09 0.08 0.08 0.08 0.08 0.08 0.12 0.16 0.20 0.20 0.22 0.23
2.45 2.69 2.96 2.85 2.69 2.58 2.38 2.14 1.80 1.60 1.40 1.17 1.11 1.14 1.01 0.88 0.75 0.67 0.63 0.56 0.49 0.41 0.35 0.36 0.36 0.30 0.31 0.28 0.21 0.18 0.17 0.13 0.11 0.10 0.09 0.09 0.08 0.09 0.11 0.16 0.19 0.23 0.29
2.48 2.60 2.84 2.86 2.63 2.58 2.46 2.16 1.83 1.59 1.47 1.40 1.21 1.10 1.06 0.91 0.80 0.74 0.64 0.58 0.53 0.46 0.38 0.34 0.33 0.33 0.32 0.31 0.28 0.24 0.23 0.19 0.14 0.13 0.12 0.12 0.10 0.08 0.07 0.10 0.17 0.27 0.38
2.49 2.65 2.68 2.80 2.77 2.54 2.49 2.22 1.90 1.78 1.59 1.47 1.33 1.16 1.12 1.00 0.86 0.81 0.70 0.58 0.52 0.51 0.47 0.42 0.41 0.38 0.34 0.31 0.27 0.26 0.26 0.23 0.17 0.14 0.13 0.12 0.10 0.09 0.07 0.08 0.12 0.22 0.35
2.42 2.65 2.68 2.64 2.73 2.63 2.49 2.36 1.98 1.77 1.73 1.54 1.42 1.29 1.17 1.12 1.04 0.94 0.81 0.68 0.68 0.70 0.64 0.54 0.49 0.43 0.37 0.35 0.31 0.31 0.29 0.28 0.21 0.17 0.16 0.13 0.11 0.09 0.08 0.07 0.10 0.16 0.24
2.34 2.57 2.70 2.65 2.64 2.78 2.66 2.51 2.33 1.97 1.74 1.73 1.61 1.41 1.20 1.13 1.09 0.99 0.86 0.82 0.86 0.81 0.73 0.65 0.58 0.53 0.45 0.43 0.40 0.38 0.38 0.36 0.29 0.25 0.22 0.19 0.15 0.12 0.11 0.11 0.11 0.12 0.15
2.39 2.56 2.71 2.66 2.61 2.86 2.97 2.75 2.50 2.24 1.86 1.68 1.63 1.45 1.29 1.22 1.13 1.04 0.91 0.89 0.95 0.90 0.81 0.76 0.69 0.64 0.58 0.56 0.54 0.43 0.39 0.41 0.37 0.29 0.25 0.22 0.19 0.17 0.15 0.14 0.14 0.13 0.14
2.37 2.49 2.63 2.67 2.59 2.60 2.72 2.65 2.39 2.11 1.91 1.68 1.58 1.56 1.44 1.36 1.37 1.23 1.03 0.99 1.02 0.94 0.86 0.85 0.86 0.83 0.75 0.72 0.67 0.52 0.41 0.37 0.35 0.29 0.25 0.23 0.20 0.20 0.18 0.18 0.17 0.16 0.15
2.10 2.38 2.55 2.66 2.71 2.49 2.32 2.41 2.38 2.25 2.07 1.89 1.77 1.69 1.56 1.46 1.40 1.35 1.28 1.20 1.18 1.15 1.10 1.04 1.03 1.00 0.93 0.91 0.85 0.77 0.57 0.42 0.33 0.29 0.26 0.24 0.22 0.22 0.21 0.21 0.19 0.19 0.18
1.79 2.07 2.33 2.51 2.65 2.66 2.53 2.59 2.48 2.32 2.10 1.85 1.66 1.61 1.58 1.54 1.50 1.42 1.39 1.39 1.37 1.32 1.24 1.18 1.16 1.16 1.12 1.06 1.01 1.04 0.80 0.54 0.40 0.35 0.31 0.27 0.25 0.25 0.26 0.26 0.24 0.23 0.22
1.54 1.73 1.94 2.27 2.50 2.61 2.67 2.56 2.38 2.14 1.87 1.63 1.60 1.71 1.72 1.64 1.56 1.48 1.45 1.44 1.46 1.42 1.32 1.34 1.34 1.24 1.26 1.22 1.16 1.07 0.92 0.73 0.65 0.50 0.39 0.37 0.34 0.30 0.31 0.31 0.29 0.27 0.25
1.35 1.52 1.64 1.88 2.22 2.35 2.30 2.28 2.27 2.12 1.89 1.76 1.70 1.66 1.64 1.56 1.48 1.42 1.40 1.43 1.41 1.41 1.37 1.38 1.41 1.40 1.34 1.31 1.25 1.20 1.19 1.04 0.88 0.81 0.63 0.49 0.47 0.42 0.40 0.40 0.40 0.38 0.34
1.12 1.31 1.51 1.56 1.75 1.96 1.97 2.01 2.04 1.91 1.80 1.71 1.60 1.55 1.55 1.50 1.39 1.31 1.28 1.30 1.35 1.35 1.32 1.33 1.41 1.47 1.48 1.38 1.27 1.17 1.15 1.10 0.98 0.96 0.86 0.66 0.58 0.50 0.47 0.44 0.43 0.45 0.48

GEFSSE_prec_meanprecacc_198.txt.gz
Total_Precipitation_Accumulation
0.10 0.17 0.42 0.47 0.45 0.45 0.41 0.40 0.39 0.38 0.37 0.40 0.38 0.37 0.39 0.37 0.32 0.24 0.25 0.28 0.31 0.38 0.45 0.48 0.52 0.54 0.51 0.49 0.45 0.27 0.17 0.13 0.11 0.10 0.11 0.16 0.19 0.19 0.15 0.15 0.17 0.17 0.20
0.10 0.17 0.39 0.49 0.53 0.52 0.49 0.45 0.41 0.35 0.37 0.41 0.44 0.46 0.46 0.42 0.34 0.30 0.31 0.31 0.37 0.45 0.47 0.48 0.41 0.37 0.35 0.34 0.27 0.15 0.09 0.05 0.04 0.03 0.03 0.05 0.10 0.15 0.14 0.13 0.14 0.18 0.21
0.12 0.21 0.39 0.51 0.59 0.58 0.57 0.51 0.42 0.35 0.36 0.40 0.46 0.52 0.49 0.44 0.41 0.37 0.37 0.37 0.42 0.47 0.43 0.38 0.32 0.25 0.20 0.18 0.14 0.09 0.05 0.03 0.03 0.02 0.03 0.06 0.08 0.13 0.15 0.14 0.16 0.19 0.19
0.16 0.25 0.39 0.56 0.64 0.65 0.58 0.54 0.47 0.42 0.41 0.44 0.45 0.50 0.48 0.44 0.43 0.38 0.37 0.39 0.40 0.38 0.32 0.27 0.23 0.19 0.16 0.12 0.10 0.07 0.04 0.03 0.02 0.02 0.04 0.07 0.08 0.16 0.20 0.19 0.19 0.19 0.18
0.22 0.32 0.47 0.63 0.72 0.74 0.67 0.64 0.57 0.49 0.49 0.51 0.51 0.51 0.51 0.49 0.46 0.44 0.42 0.41 0.36 0.28 0.25 0.23 0.19 0.17 0.14 0.12 0.10 0.08 0.06 0.05 0.02 0.03 0.05 0.08 0.10 0.21 0.22 0.21 0.22 0.23 0.23
0.35 0.50 0.60 0.70 0.79 0.81 0.79 0.76 0.73 0.64 0.56 0.60 0.59 0.57 0.59 0.54 0.50 0.52 0.47 0.38 0.30 0.25 0.21 0.20 0.19 0.17 0.14 0.11 0.10 0.10 0.09 0.05 0.03 0.03 0.06 0.09 0.14 0.27 0.25 0.23 0.25 0.27 0.30
0.55 0.69 0.77 0.84 0.92 0.88 0.86 0.85 0.83 0.80 0.74 0.71 0.68 0.65 0.66 0.62 0.56 0.53 0.48 0.35 0.28 0.25 0.23 0.22 0.21 0.19 0.16 0.11 0.08 0.09 0.09 0.05 0.03 0.04 0.06 0.10 0.15 0.26 0.24 0.21 0.24 0.28 0.30
0.79 0.92 1.01 1.09 1.14 1.04 0.96 0.89 0.89 0.94 0.94 0.90 0.85 0.79 0.73 0.70 0.64 0.53 0.46 0.34 0.30 0.29 0.26 0.25 0.25 0.21 0.19 0.14 0.08 0.07 0.06 0.03 0.02 0.04 0.06 0.09 0.13 0.23 0.22 0.19 0.19 0.21 0.23
1.19 1.26 1.35 1.34 1.28 1.23 1.13 1.04 0.99 1.00 1.02 1.01 0.94 0.87 0.77 0.73 0.67 0.54 0.44 0.40 0.34 0.33 0.28 0.25 0.25 0.23 0.22 0.18 0.10 0.08 0.05 0.02 0.02 0.05 0.07 0.09 0.16 0.28 0.25 0.21 0.20 0.20 0.21
1.64 1.67 1.71 1.68 1.53 1.38 1.26 1.15 1.08 1.03 1.06 1.07 0.97 0.78 0.65 0.65 0.65 0.56 0.39 0.40 0.37 0.34 0.30 0.27 0.27 0.25 0.19 0.18 0.12 0.08 0.05 0.03 0.03 0.06 0.08 0.10 0.16 0.27 0.27 0.23 0.24 0.25 0.23
2.09 2.03 1.93 1.89 1.82 1.63 1.50 1.29 1.19 1.12 1.12 1.07 0.92 0.76 0.67 0.69 0.65 0.56 0.35 0.29 0.32 0.30 0.31 0.29 0.27 0.26 0.19 0.14 0.12 0.08 0.06 0.05 0.05 0.08 0.08 0.09 0.16 0.21 0.23 0.21 0.21 0.23 0.25
2.23 2.25 2.18 2.08 2.02 1.91 1.71 1.57 1.43 1.24 1.14 1.07 0.90 0.77 0.73 0.70 0.66 0.55 0.41 0.29 0.28 0.27 0.29 0.31 0.29 0.26 0.21 0.14 0.14 0.10 0.07 0.06 0.06 0.06 0.07 0.08 0.14 0.19 0.19 0.20 0.20 0.19 0.20
2.47 2.58 2.55 2.42 2.37 2.36 2.12 1.86 1.71 1.44 1.22 1.15 1.00 0.90 0.83 0.82 0.75 0.67 0.56 0.42 0.36 0.27 0.26 0.30 0.28 0.22 0.20 0.15 0.15 0.13 0.09 0.08 0.08 0.07 0.08 0.08 0.12 0.18 0.20 0.21 0.21 0.20 0.21
2.63 2.79 2.96 2.86 2.72 2.64 2.39 2.13 1.88 1.64 1.36 1.17 1.14 1.05 0.99 0.91 0.78 0.67 0.60 0.49 0.43 0.34 0.30 0.34 0.30 0.24 0.26 0.20 0.16 0.17 0.15 0.10 0.09 0.09 0.09 0.08 0.10 0.15 0.19 0.22 0.22 0.23 0.24
2.51 2.74 3.06 3.01 2.86 2.70 2.46 2.23 1.92 1.71 1.51 1.26 1.18 1.17 1.08 1.00 0.88 0.76 0.70 0.62 0.52 0.43 0.36 0.37 0.37 0.32 0.32 0.30 0.23 0.19 0.19 0.14 0.11 0.10 0.09 0.09 0.10 0.13 0.15 0.19 0.21 0.24 0.30
2.52 2.65 2.94 3.01 2.82 2.73 2.55 2.25 1.97 1.74 1.61 1.51 1.28 1.14 1.10 1.01 0.95 0.87 0.74 0.63 0.57 0.48 0.39 0.34 0.34 0.34 0.33 0.33 0.30 0.25 0.24 0.20 0.15 0.14 0.13 0.12 0.12 0.13 0.14 0.15 0.20 0.29 0.39
2.55 2.70 2.77 2.94 2.97 2.74 2.62 2.34 2.05 1.98 1.78 1.61 1.40 1.21 1.15 1.05 0.97 0.95 0.81 0.64 0.56 0.54 0.48 0.43 0.42 0.39 0.36 0.32 0.29 0.28 0.28 0.24 0.19 0.16 0.15 0.14 0.12 0.13 0.14 0.13 0.15 0.24 0.36
2.52 2.70 2.76 2.78 2.90 2.87 2.69 2.48 2.11 1.98 1.96 1.73 1.53 1.35 1.21 1.17 1.12 1.05 0.93 0.77 0.73 0.73 0.65 0.55 0.50 0.44 0.38 0.36 0.33 0.33 0.31 0.29 0.23 0.20 0.18 0.16 0.14 0.13 0.15 0.14 0.13 0.17 0.26
2.45 2.64 2.77 2.78 2.79 2.97 2.90 2.68 2.46 2.17 1.97 1.95 1.79 1.51 1.25 1.18 1.17 1.09 0.96 0.91 0.93 0.84 0.75 0.67 0.59 0.54 0.46 0.44 0.42 0.40 0.40 0.38 0.30 0.27 0.25 0.23 0.21 0.19 0.19 0.18 0.16 0.15 0.16
2.50 2.66 2.78 2.77 2.74 3.00 3.17 2.94 2.64 2.41 2.06 1.87 1.83 1.62 1.39 1.29 1.21 1.13 1.02 0.99 1.03 0.96 0.85 0.77 0.70 0.65 0.59 0.56 0.55 0.45 0.42 0.43 0.39 0.31 0.28 0.26 0.25 0.25 0.23 0.21 0.19 0.16 0.16
2.45 2.57 2.71 2.75 2.72 2.74 2.89 2.82 2.54 2.26 2.09 1.85 1.75 1.73 1.58 1.47 1.49 1.34 1.13 1.10 1.11 1.01 0.91 0.88 0.88 0.84 0.76 0.72 0.68 0.53 0.44 0.39 0.37 0.30 0.26 0.25 0.24 0.24 0.24 0.24 0.22 0.19 0.17
2.19 2.46 2.61 2.74 2.82 2.63 2.47 2.58 2.55 2.41 2.21 2.01 1.90 1.85 1.70 1.56 1.51 1.48 1.40 1.31 1.27 1.23 1.15 1.07 1.05 1.02 0.95 0.92 0.86 0.78 0.58 0.44 0.36 0.31 0.27 0.26 0.25 0.25 0.25 0.24 0.23 0.22 0.20
1.88 2.15 2.39 2.56 2.72 2.78 2.67 2.73 2.66 2.52 2.26 1.98 1.77 1.74 1.71 1.64 1.59 1.50 1.49 1.50 1.47 1.40 1.29 1.22 1.19 1.19 1.15 1.07 1.02 1.05 0.81 0.56 0.42 0.37 0.33 0.29 0.27 0.27 0.28 0.28 0.26 0.26 0.24
1.62 1.82 2.02 2.32 2.55 2.69 2.78 2.69 2.52 2.32 2.04 1.76 1.71 1.82 1.83 1.72 1.64 1.57 1.54 1.53 1.56 1.49 1.38 1.38 1.38 1.26 1.28 1.24 1.18 1.08 0.93 0.74 0.66 0.52 0.41 0.39 0.36 0.32 0.33 0.33 0.31 0.29 0.27
1.40 1.61 1.73 1.93 2.26 2.39 2.37 2.37 2.38 2.24 2.03 1.89 1.80 1.76 1.74 1.64 1.55 1.49 1.49 1.52 1.50 1.49 1.44 1.44 1.45 1.44 1.37 1.33 1.27 1.22 1.20 1.05 0.89 0.82 0.64 0.51 0.48 0.44 0.42 0.42 0.42 0.40 0.36
1.16 1.36 1.55 1.60 1.79 2.00 2.01 2.07 2.12 2.00 1.90 1.81 1.68 1.64 1.64 1.57 1.45 1.37 1.33 1.36 1.41 1.42 1.39 1.39 1.47 1.52 1.51 1.40 1.29 1.19 1.16 1.11 0.99 0.97 0.87 0.67 0.60 0.51 0.49 0.46 0.45 0.47 0.51